[[{"header":{"parameterUnit":"m.s-1","parameterCategory":2,"la1":30.2991,"la2":30.254,"lo1":-89.0895,"lo2":-89.0444,"dy":0.0017,"dx":0.0017,"nx":28,"ny":28,"refTime":"2024-05-06T09:00:00:Z","depth":"0","parameterNumber":2,"parameterNumberName":"U-component_of_CURRENTS"},"data":[0,0,0,0,0,0,0,0,0,0,0,0,0,0,0,0,0,0,0,0,0,0,0,0,0,0,0,0,0,0,0,0,0,0,0,0,0,0,0,0,0,0,0,0,0,0,0,0,0,0,0,0,0,0,0,0,0,0,0.2602,0.2603,0,0.2664,0.2665,0.2666,0.2675,0.2675,0.2674,0.2674,0.2718,0.2719,0.2721,0,0,0,0,0,0,0,0,0,0,0,0,0,0.2509,0.251,0.2602,0.2603,0.2604,0.2664,0.2665,0.2666,0.2675,0.2675,0.2674,0.2674,0.2717,0.2719,0.2721,0,0,0,0,0,0,0,0,0,0,0,0,0,0.2556,0.2511,0.2602,0.2617,0.2619,0.2664,0.2665,0.2666,0.2675,0.2675,0.2674,0.2673,0.2717,0.2719,0.2721,0.2748,0,0,0.2728,0.2729,0,0,0,0,0,0,0,0,0.2554,0.2559,0.2614,0.2616,0.2619,0.2663,0.2649,0.2693,0.2675,0.2652,0.2674,0.2673,0.2699,0.2703,0.2714,0.275,0.2751,0.2729,0.273,0.2731,0.2732,0,0,0,0,0,0,0,0.255,0.2557,0.2625,0.2615,0.2618,0.2627,0.2633,0.2657,0.2677,0.2654,0.2655,0.2665,0.27,0.2712,0.2715,0.2752,0.2729,0.2731,0.2732,0.2733,0.2808,0.2809,0,0,0,0,0,0,0.2546,0.2554,0.2623,0.2627,0.2586,0.2629,0.2636,0.2648,0.2677,0.2681,0.2666,0.2666,0.2708,0.2712,0.2717,0.2764,0.2731,0.2733,0.2734,0.2807,0.2808,0.2809,0,0,0,0,0,0,0.2544,0.2552,0.262,0.2593,0.2603,0.2632,0.2645,0.2649,0.2665,0.2686,0.269,0.2678,0.2708,0.2713,0.2743,0.2765,0.2734,0.2736,0.2807,0.2808,0.2809,0.2848,0,0,0,0,0,0,0.2541,0.2551,0.256,0.2593,0.2604,0.2658,0.2646,0.2651,0.2673,0.2673,0.2698,0.2701,0.2708,0.2739,0.2745,0.2767,0.2738,0.2806,0.2807,0.2808,0.2846,0.2851,0.2854,0,0,0,0,0,0.2538,0.2552,0.256,0.2569,0.2615,0.2659,0.2666,0.2683,0.2674,0.2692,0.2701,0.27,0.275,0.2742,0.2748,0.2772,0.2805,0.2807,0.2808,0.2845,0.285,0.2854,0,0,0,0,0,0,0.2516,0.2556,0.2565,0.2591,0.2628,0.2662,0.2679,0.2688,0.271,0.2705,0.2715,0.272,0.2754,0.2755,0.2745,0.2794,0.2775,0.2778,0.2801,0.2806,0.281,0.2803,0.274,0,0,0,0,0,0.2517,0.2539,0.258,0.2603,0.2621,0.265,0.2669,0.2682,0.2706,0.2714,0.2731,0.2744,0.2766,0.2778,0.2798,0.2828,0.2844,0.2844,0.2848,0.2852,0.285,0.2893,0.2901,0.2813,0.2813,0.2813,0,0,0.2514,0.254,0.2552,0.26,0.2627,0.266,0.266,0.2694,0.2717,0.2717,0.275,0.2764,0.2777,0.2812,0.2826,0.2815,0.2888,0.2853,0.2856,0.2853,0.2896,0.2904,0.2912,0.2814,0.2814,0.2814,0,0,0.2523,0.2545,0.2568,0.2602,0.2648,0.267,0.2681,0.2721,0.2735,0.2772,0.2774,0.2797,0.2833,0.2847,0.2856,0.2892,0.291,0.29,0.2917,0.2959,0.2967,0.2974,0.3021,0.3032,0.29,0.29,0.29,0,0.2517,0.2552,0.2583,0.2618,0.2643,0.2674,0.2704,0.2731,0.2774,0.279,0.2785,0.2839,0.2848,0.2888,0.2896,0.2903,0.2933,0.29,0.2966,0.2973,0.2979,0.3026,0.3037,0.2902,0.2901,0.2901,0.2901,0,0.2547,0.2576,0.2595,0.2646,0.2679,0.2711,0.2752,0.2779,0.2795,0.2824,0.2869,0.2885,0.2916,0.2923,0.2921,0.2972,0.2982,0.2971,0.2956,0.2991,0.3037,0.3049,0.2905,0.2904,0.2903,0.2903,0,0,0.2524,0.2598,0.2603,0.2625,0.2692,0.2716,0.2762,0.2813,0.2841,0.2879,0.2922,0.2949,0.2965,0.2975,0.2982,0.3008,0.3081,0.3009,0.301,0.306,0.3191,0.3215,0.323,0.309,0.3091,0.3093,0.3211,0,0.2536,0.259,0.2627,0.2672,0.2703,0.2744,0.2787,0.2835,0.2876,0.293,0.2955,0.3002,0.2985,0.3006,0.3034,0.3077,0.311,0.305,0.3145,0.3148,0.3169,0.3243,0.3221,0.3326,0.3222,0.3224,0.3225,0,0.2547,0.2584,0.2627,0.2684,0.27,0.2729,0.279,0.2834,0.2918,0.2955,0.3008,0.3046,0.3104,0.3076,0.3169,0.3139,0.3165,0.3185,0.319,0.3204,0.3193,0.3271,0.335,0.3334,0.3242,0.3241,0.324,0,0.251,0.2576,0.2602,0.2625,0.2701,0.2716,0.2755,0.2837,0.289,0.2976,0.3037,0.3104,0.3162,0.3202,0.3263,0.3225,0.3368,0.3321,0.3366,0.3368,0.3361,0.336,0.3436,0.3376,0.3376,0.3376,0.3375,0,0.2503,0.2521,0.2581,0.2596,0.2631,0.2689,0.2741,0.2792,0.2895,0.2973,0.3047,0.3129,0.3199,0.3294,0.3309,0.3403,0.3416,0.3391,0.3408,0.3376,0.3375,0.3366,0.3328,0.338,0.3379,0.3378,0.3378,0,0.2457,0.2499,0.253,0.2595,0.2615,0.2635,0.2734,0.2776,0.2883,0.299,0.3028,0.3183,0.3313,0.3391,0.3484,0.3484,0.348,0.3563,0.3528,0.3538,0.3531,0.3494,0.3369,0.3265,0.3625,0.3626,0.3628,0,0.2439,0.2452,0.2514,0.2528,0.2552,0.2601,0.264,0.2752,0.2813,0.302,0.3069,0.3252,0.3367,0.3548,0.361,0.3687,0.3549,0.3676,0.3581,0.3555,0.3527,0.3308,0.3211,0.3595,0.3596,0.3597,0.3598,0,0.2402,0.242,0.2444,0.2482,0.2508,0.2551,0.2619,0.2676,0.2819,0.2939,0.3101,0.3216,0.3447,0.3557,0.3694,0.3716,0.3546,0.3691,0.3676,0.3529,0.3282,0.3183,0.3495,0.3604,0.3603,0.3603,0.3602,0.3602,0.2364,0.237,0.2401,0.2422,0.2451,0.2478,0.2492,0.2595,0.2705,0.2863,0.3037,0.3199,0.3477,0.3686,0.3681,0.3744,0.3592,0.3687,0.3655,0.344,0.3301,0.3632,0.3747,0.3748,0.3748,0.3748,0.3748,0,0.2307,0.232,0.2342,0.2356,0.2344,0.2394,0.2454,0.2465,0.2555,0.2767,0.2914,0.3254,0.3436,0.361,0.3823,0.3756,0.3503,0.3676,0.3383,0.3293,0.3648,0.3614,0.3691,0.3691,0.3691,0.3691,0.3691,0.3691,0.228,0.2269,0.228,0.2239,0.2244,0.2211,0.2224,0.2273,0.2395,0.2608,0.2819,0.3013,0.3457,0.38,0.3864,0.3771,0.3481,0.3356,0.3253,0.3585,0.3582,0.358,0.3541,0.3602,0.3602,0.2784,0.2779,0.2775]},{"header":{"parameterUnit":"m.s-1","parameterCategory":2,"la1":30.2991,"la2":30.254,"lo1":-89.0895,"lo2":-89.0444,"dy":0.0017,"dx":0.0017,"nx":28,"ny":28,"refTime":"2024-05-06T09:00:00:Z","depth":"0","parameterNumber":3,"parameterNumberName":"V-component_of_CURRENTS"},"data":[0,0,0,0,0,0,0,0,0,0,0,0,0,0,0,0,0,0,0,0,0,0,0,0,0,0,0,0,0,0,0,0,0,0,0,0,0,0,0,0,0,0,0,0,0,0,0,0,0,0,0,0,0,0,0,0,0,0,0.0137,0.0136,0,0.0071,0.007,0.0069,0.0012,0.0012,0.0011,0.0011,-0.0124,-0.0127,-0.013,0,0,0,0,0,0,0,0,0,0,0,0,0,0.0184,0.0183,0.0137,0.0136,0.0135,0.0071,0.007,0.0069,0.0012,0.0012,0.0011,0.001,-0.0123,-0.0127,-0.013,0,0,0,0,0,0,0,0,0,0,0,0,0,0.0144,0.0183,0.0137,0.01,0.0096,0.0071,0.007,0.0069,0.0013,0.0012,0.0011,0.001,-0.0122,-0.0126,-0.0131,-0.0142,0,0,-0.0145,-0.0147,0,0,0,0,0,0,0,0,0.0147,0.0143,0.0106,0.0102,0.0098,0.005,0.0037,-0.0005,0.0013,0.0043,0.0011,0.001,-0.0071,-0.008,-0.0091,-0.0148,-0.0154,-0.0145,-0.0148,-0.015,-0.0151,0,0,0,0,0,0,0,0.015,0.0145,0.011,0.0105,0.01,0.0076,0.007,0.0029,-0.001,0.0041,0.0037,0.0031,-0.0074,-0.0086,-0.0094,-0.0156,-0.0145,-0.0149,-0.0152,-0.0154,-0.0238,-0.0237,0,0,0,0,0,0,0.0162,0.0148,0.0112,0.0108,0.0122,0.0076,0.0069,0.0065,-0.0008,-0.002,0.0032,0.0028,-0.0078,-0.0089,-0.01,-0.012,-0.015,-0.0154,-0.0157,-0.0238,-0.0238,-0.0237,0,0,0,0,0,0,0.0163,0.0159,0.0115,0.0127,0.0119,0.0077,0.0073,0.0065,0.0051,-0.0014,-0.0027,0.0026,-0.0079,-0.0093,-0.013,-0.0125,-0.0156,-0.0161,-0.0239,-0.0238,-0.0237,-0.0158,0,0,0,0,0,0,0.0165,0.016,0.0164,0.0128,0.0119,0.0108,0.0073,0.0064,0.0049,0.0044,-0.0024,-0.0037,-0.0081,-0.0123,-0.0135,-0.0132,-0.0164,-0.024,-0.0238,-0.0238,-0.0162,-0.0155,-0.0149,0,0,0,0,0,0.0167,0.0179,0.0165,0.016,0.0125,0.0109,0.0103,0.0068,0.005,0.0051,0.0005,-0.0035,-0.0125,-0.0126,-0.014,-0.0139,-0.024,-0.0239,-0.0238,-0.0164,-0.0156,-0.015,0,0,0,0,0,0,0.0202,0.0173,0.0157,0.016,0.0139,0.01,0.0099,0.0075,0.0041,0.0035,-0.0029,-0.0045,-0.0075,-0.0115,-0.0114,-0.0159,-0.0189,-0.019,-0.0129,-0.0122,-0.0115,-0.0089,-0.0168,0,0,0,0,0,0.0212,0.0212,0.0181,0.0183,0.0177,0.0139,0.0128,0.0107,0.0072,0.0056,0.0011,-0.0038,-0.008,-0.0106,-0.0146,-0.0171,-0.0207,-0.0179,-0.0173,-0.0168,-0.0155,-0.0208,-0.0205,-0.0233,-0.0233,-0.0233,0,0,0.0226,0.021,0.021,0.019,0.0171,0.0175,0.013,0.0122,0.0123,0.0047,0.0033,-0.0017,-0.0081,-0.0107,-0.0125,-0.0142,-0.0176,-0.0166,-0.0161,-0.0151,-0.0206,-0.0204,-0.0201,-0.0232,-0.0233,-0.0233,0,0,0.026,0.0241,0.0256,0.0245,0.0226,0.0204,0.0206,0.0173,0.0155,0.0136,0.0081,0.0035,-0.0021,-0.0069,-0.0101,-0.0085,-0.014,-0.0097,-0.005,-0.0101,-0.0099,-0.0098,-0.013,-0.0132,-0.0097,-0.0097,-0.0097,0,0.0278,0.0292,0.0259,0.0273,0.0272,0.0223,0.0243,0.0221,0.0181,0.0167,0.0145,0.0057,-0.0004,-0.0045,-0.0041,-0.0072,-0.0099,-0.0073,-0.0093,-0.0092,-0.0093,-0.0125,-0.0129,-0.0093,-0.0094,-0.0094,-0.0094,0,0.0324,0.0337,0.0347,0.0348,0.0342,0.0351,0.032,0.0309,0.0281,0.025,0.0211,0.0134,0.0079,0.0051,0.0008,-0.0022,-0.0039,-0.0076,-0.0109,-0.0085,-0.0121,-0.0126,-0.0088,-0.0089,-0.009,-0.0091,0,0,0.0362,0.0378,0.0381,0.0399,0.0384,0.0386,0.0388,0.0373,0.0376,0.0323,0.0319,0.0231,0.0185,0.0147,0.008,0.0033,0.0001,-0.0011,-0.0016,-0.0036,-0.0092,-0.0095,-0.0102,-0.0037,-0.0038,-0.0038,-0.0113,0,0.041,0.0459,0.0448,0.0493,0.0518,0.048,0.0489,0.0465,0.0434,0.0419,0.033,0.0299,0.0222,0.0199,0.0139,0.0038,-0.0009,0.0026,-0.0117,-0.0121,-0.0123,-0.0107,-0.0087,-0.015,-0.0118,-0.0119,-0.012,0,0.0459,0.0488,0.0543,0.0574,0.058,0.0593,0.0595,0.0601,0.0558,0.0535,0.048,0.0412,0.0332,0.0269,0.0112,0.0142,0.0038,-0.0043,-0.0049,-0.0081,-0.0134,-0.0173,-0.0162,-0.0331,-0.0128,-0.0128,-0.0127,0,0.0506,0.0553,0.0601,0.061,0.0634,0.0645,0.0655,0.0631,0.0655,0.061,0.0621,0.0502,0.0463,0.0315,0.0145,0.0127,-0.0016,-0.0071,-0.0171,-0.0173,-0.0198,-0.02,-0.0362,-0.0178,-0.0178,-0.0177,-0.0177,0,0.0561,0.0599,0.0627,0.0653,0.0718,0.0705,0.0761,0.0751,0.0756,0.0807,0.0689,0.0703,0.0475,0.0363,0.0188,0.0008,0.0009,-0.0152,-0.0192,-0.0168,-0.0167,-0.035,-0.0475,-0.018,-0.018,-0.0179,-0.0179,0,0.0605,0.0621,0.0685,0.0723,0.0744,0.0789,0.0854,0.0894,0.0888,0.0955,0.0952,0.0852,0.071,0.0483,0.0247,0.0083,-0.0216,-0.0173,-0.0116,-0.0148,-0.0404,-0.0524,-0.0742,-0.0844,-0.0299,-0.0299,-0.03,0,0.0632,0.0669,0.0743,0.0791,0.0812,0.0881,0.0937,0.096,0.1022,0.1063,0.1108,0.0992,0.0943,0.0597,0.0269,-0.0036,-0.023,-0.0214,-0.0257,-0.0405,-0.057,-0.0649,-0.0726,-0.026,-0.026,-0.026,-0.0261,0,0.0691,0.0711,0.0764,0.0866,0.0934,0.1033,0.1118,0.1194,0.1247,0.1313,0.1379,0.1344,0.1015,0.0724,0.0299,0.0066,-0.035,-0.0224,-0.0406,-0.0571,-0.0642,-0.0762,-0.0215,-0.0261,-0.0261,-0.0261,-0.0261,-0.0261,0.0732,0.0783,0.0853,0.0949,0.1042,0.1177,0.1276,0.1384,0.1522,0.1656,0.1598,0.1612,0.118,0.0599,0.0243,-0.0341,-0.0381,-0.0501,-0.0638,-0.0704,-0.08,-0.0236,-0.0312,-0.0312,-0.0312,-0.0312,-0.0312,0,0.079,0.0845,0.0934,0.1057,0.1169,0.1213,0.1394,0.1513,0.1702,0.1837,0.1902,0.1749,0.1175,0.0598,-0.019,-0.0633,-0.083,-0.0889,-0.101,-0.1075,-0.0588,-0.0581,-0.0683,-0.0683,-0.0683,-0.0683,-0.0682,-0.0682,0.0824,0.0914,0.096,0.1145,0.1237,0.1415,0.1534,0.1723,0.1873,0.2093,0.2167,0.2178,0.1808,0.0269,-0.0734,-0.1014,-0.1354,-0.1438,-0.1613,-0.1286,-0.126,-0.1235,-0.1254,-0.1496,-0.1498,-0.2017,-0.2022,-0.2027]}],[{"header":{"parameterUnit":"m.s-1","parameterCategory":2,"la1":30.2991,"la2":30.254,"lo1":-89.0895,"lo2":-89.0444,"dy":0.0017,"dx":0.0017,"nx":28,"ny":28,"refTime":"2024-05-06T09:00:00:Z","depth":"2","parameterNumber":2,"parameterNumberName":"U-component_of_CURRENTS"},"data":[0,0,0,0,0,0,0,0,0,0,0,0,0,0,0,0,0,0,0,0,0,0,0,0,0,0,0,0,0,0,0,0,0,0,0,0,0,0,0,0,0,0,0,0,0,0,0,0,0,0,0,0,0,0,0,0,0,0,0.2524,0.2525,0,0.2583,0.2583,0.2584,0.2598,0.2598,0.2598,0.2597,0.2646,0.2648,0.2649,0,0,0,0,0,0,0,0,0,0,0,0,0,0.2437,0.2439,0.2524,0.2525,0.2526,0.2583,0.2583,0.2584,0.2598,0.2598,0.2597,0.2597,0.2646,0.2647,0.2649,0,0,0,0,0,0,0,0,0,0,0,0,0,0.2481,0.2439,0.2524,0.2541,0.2543,0.2582,0.2583,0.2584,0.2598,0.2598,0.2597,0.2597,0.2645,0.2647,0.2649,0.267,0,0,0.2656,0.2657,0,0,0,0,0,0,0,0,0.2479,0.2484,0.2538,0.254,0.2543,0.2584,0.2571,0.2613,0.2598,0.2575,0.2597,0.2597,0.2626,0.263,0.2639,0.2672,0.2674,0.2656,0.2658,0.2659,0.2659,0,0,0,0,0,0,0,0.2476,0.2482,0.2545,0.2539,0.2542,0.2551,0.2556,0.2579,0.26,0.2577,0.2579,0.2589,0.2627,0.2637,0.264,0.2675,0.2656,0.2658,0.266,0.2661,0.2734,0.2735,0,0,0,0,0,0,0.2472,0.2479,0.2544,0.2547,0.2512,0.2552,0.2559,0.257,0.26,0.2605,0.2589,0.2589,0.2633,0.2638,0.2642,0.2692,0.2659,0.2661,0.2662,0.2734,0.2735,0.2735,0,0,0,0,0,0,0.247,0.2478,0.2541,0.2516,0.2525,0.2554,0.2567,0.2571,0.2589,0.2609,0.2614,0.2603,0.2633,0.2639,0.2669,0.2693,0.2662,0.2664,0.2733,0.2734,0.2735,0.2777,0,0,0,0,0,0,0.2468,0.2477,0.2486,0.2516,0.2526,0.2576,0.2567,0.2573,0.2596,0.2597,0.2623,0.2627,0.2633,0.2665,0.2671,0.2696,0.2666,0.2732,0.2734,0.2735,0.2775,0.278,0.2784,0,0,0,0,0,0.2464,0.2478,0.2486,0.2494,0.2538,0.2578,0.2584,0.2602,0.2597,0.2614,0.2625,0.2626,0.2676,0.2668,0.2674,0.27,0.2732,0.2733,0.2735,0.2773,0.2779,0.2783,0,0,0,0,0,0,0.2445,0.2482,0.2491,0.2516,0.255,0.2581,0.2599,0.2608,0.2631,0.2629,0.2639,0.2645,0.2681,0.2681,0.2672,0.2723,0.2703,0.2705,0.273,0.2735,0.2739,0.2732,0.2668,0,0,0,0,0,0.2446,0.2467,0.2505,0.2526,0.2544,0.2572,0.259,0.2605,0.2628,0.2637,0.2655,0.2669,0.2691,0.2705,0.2724,0.2755,0.2768,0.2772,0.2777,0.278,0.2778,0.2819,0.2827,0.274,0.274,0.274,0,0,0.2443,0.2469,0.2479,0.2524,0.255,0.2581,0.2582,0.2616,0.2639,0.2639,0.2674,0.269,0.2703,0.2738,0.2753,0.2742,0.2815,0.2782,0.2785,0.2781,0.2822,0.283,0.2838,0.2741,0.2741,0.274,0,0,0.2452,0.2474,0.2496,0.2527,0.2572,0.2593,0.2605,0.2643,0.2659,0.2695,0.2699,0.2725,0.276,0.2774,0.2784,0.282,0.2838,0.283,0.2848,0.2889,0.2897,0.2903,0.2948,0.2958,0.283,0.283,0.283,0,0.2448,0.248,0.251,0.2542,0.2567,0.2598,0.2627,0.2653,0.2695,0.2713,0.2711,0.2765,0.2775,0.2815,0.2825,0.2831,0.286,0.2831,0.2896,0.2902,0.2909,0.2952,0.2963,0.2832,0.2832,0.2832,0.2832,0,0.2474,0.2503,0.2521,0.2569,0.2601,0.2632,0.2672,0.2701,0.272,0.2748,0.2795,0.2812,0.2844,0.2852,0.285,0.2902,0.2911,0.29,0.2885,0.2921,0.2964,0.2975,0.2835,0.2835,0.2834,0.2833,0,0,0.2453,0.2523,0.2528,0.2549,0.2615,0.2638,0.2684,0.2733,0.2763,0.2803,0.2846,0.2876,0.2893,0.2903,0.2912,0.2938,0.301,0.294,0.2941,0.2988,0.3116,0.3128,0.3141,0.302,0.3021,0.3023,0.3134,0,0.2464,0.2515,0.255,0.2593,0.2623,0.2664,0.2706,0.2755,0.2797,0.2851,0.2879,0.2927,0.2913,0.2936,0.2964,0.3005,0.3038,0.2981,0.307,0.3072,0.3083,0.3153,0.2916,0.2996,0.3144,0.3146,0.3147,0,0.2473,0.2508,0.255,0.2605,0.2621,0.265,0.2713,0.2755,0.2839,0.2878,0.2933,0.2971,0.3031,0.3004,0.3094,0.3066,0.3092,0.3111,0.3116,0.3117,0.3105,0.2981,0.301,0.3165,0.3164,0.3162,0.3161,0,0.2438,0.25,0.2527,0.2548,0.2623,0.2641,0.2679,0.2761,0.2814,0.2901,0.2961,0.3029,0.3087,0.3126,0.3185,0.315,0.3285,0.3241,0.3273,0.3275,0.3082,0.3065,0.3294,0.3294,0.3294,0.3293,0.3293,0,0.243,0.2447,0.2508,0.2523,0.2559,0.2616,0.267,0.2721,0.2823,0.2898,0.2974,0.3052,0.3123,0.3214,0.3229,0.3312,0.3331,0.3296,0.3311,0.3093,0.3076,0.3217,0.3207,0.3298,0.3297,0.3296,0.3295,0,0.2386,0.2427,0.2459,0.2524,0.2545,0.2568,0.2665,0.2707,0.2813,0.2916,0.2955,0.3105,0.3228,0.3303,0.3392,0.3387,0.3442,0.3456,0.3207,0.3191,0.3387,0.3377,0.35,0.3501,0.3503,0.3504,0.3505,0,0.2368,0.2383,0.2446,0.2462,0.2488,0.2539,0.2578,0.2686,0.2745,0.2943,0.299,0.3165,0.3267,0.3435,0.3463,0.3525,0.3523,0.3323,0.3202,0.341,0.3412,0.34,0.3389,0.2963,0.296,0.2957,0.2954,0,0.2334,0.2356,0.2381,0.2422,0.2451,0.2493,0.2559,0.2611,0.2748,0.2853,0.3002,0.3106,0.3301,0.3287,0.3399,0.338,0.3295,0.3269,0.3555,0.2963,0.2917,0.2915,0.2919,0.2928,0.2931,0.2933,0.2934,0.2935,0.23,0.2308,0.2343,0.2368,0.2399,0.2425,0.2436,0.2525,0.2616,0.2735,0.2906,0.2985,0.3083,0.3149,0.3091,0.3053,0.3262,0.3096,0.3099,0.3106,0.3039,0.3,0.3014,0.3017,0.3019,0.3022,0.3024,0,0.2247,0.2264,0.2289,0.2304,0.2293,0.2348,0.2401,0.2391,0.2449,0.2602,0.2712,0.2594,0.2648,0.272,0.2655,0.2699,0.2589,0.2563,0.2387,0.2421,0.2449,0.2339,0.2132,0.2129,0.2125,0.2122,0,0,0.2222,0.2214,0.2225,0.2187,0.2198,0.2167,0.2176,0.218,0.2257,0.2269,0.2309,0.2546,0.2693,0.2377,0.2371,0.2239,0.2286,0.2148,0.2883,0.2714,0.2735,0.2805,0.2684,0,0,0,0,0]},{"header":{"parameterUnit":"m.s-1","parameterCategory":2,"la1":30.2991,"la2":30.254,"lo1":-89.0895,"lo2":-89.0444,"dy":0.0017,"dx":0.0017,"nx":28,"ny":28,"refTime":"2024-05-06T09:00:00:Z","depth":"2","parameterNumber":3,"parameterNumberName":"V-component_of_CURRENTS"},"data":[0,0,0,0,0,0,0,0,0,0,0,0,0,0,0,0,0,0,0,0,0,0,0,0,0,0,0,0,0,0,0,0,0,0,0,0,0,0,0,0,0,0,0,0,0,0,0,0,0,0,0,0,0,0,0,0,0,0,0.0056,0.0056,0,-0.0007,-0.0008,-0.0009,-0.0062,-0.0062,-0.0063,-0.0063,-0.0193,-0.0196,-0.0199,0,0,0,0,0,0,0,0,0,0,0,0,0,0.0101,0.0101,0.0057,0.0056,0.0055,-0.0007,-0.0008,-0.0009,-0.0062,-0.0062,-0.0063,-0.0063,-0.0192,-0.0196,-0.0199,0,0,0,0,0,0,0,0,0,0,0,0,0,0.0064,0.0101,0.0057,0.0022,0.0018,-0.0007,-0.0008,-0.0009,-0.0061,-0.0062,-0.0063,-0.0064,-0.0191,-0.0195,-0.02,-0.0213,0,0,-0.0214,-0.0216,0,0,0,0,0,0,0,0,0.0066,0.0062,0.0028,0.0024,0.002,-0.0027,-0.004,-0.008,-0.0061,-0.0032,-0.0063,-0.0064,-0.0143,-0.0151,-0.0162,-0.0219,-0.0224,-0.0214,-0.0217,-0.0219,-0.022,0,0,0,0,0,0,0,0.0069,0.0064,0.0031,0.0027,0.0022,-0.0001,-0.0007,-0.0048,-0.0084,-0.0035,-0.0038,-0.0044,-0.0145,-0.0157,-0.0165,-0.0226,-0.0214,-0.0218,-0.0221,-0.0222,-0.0306,-0.0306,0,0,0,0,0,0,0.008,0.0067,0.0033,0.0029,0.0042,-0.0001,-0.0008,-0.0011,-0.0082,-0.0093,-0.0043,-0.0046,-0.0149,-0.016,-0.017,-0.0189,-0.0219,-0.0223,-0.0225,-0.0307,-0.0306,-0.0305,0,0,0,0,0,0,0.0082,0.0078,0.0035,0.0047,0.004,-0.0001,-0.0005,-0.0012,-0.0025,-0.0088,-0.0101,-0.0048,-0.015,-0.0164,-0.02,-0.0195,-0.0225,-0.0229,-0.0307,-0.0306,-0.0306,-0.0228,0,0,0,0,0,0,0.0083,0.0079,0.0083,0.0048,0.0039,0.0028,-0.0004,-0.0013,-0.0027,-0.0032,-0.0096,-0.0109,-0.0152,-0.0193,-0.0204,-0.0202,-0.0233,-0.0308,-0.0307,-0.0306,-0.0231,-0.0225,-0.0219,0,0,0,0,0,0.0085,0.0097,0.0083,0.0079,0.0045,0.0029,0.0023,-0.0009,-0.0026,-0.0025,-0.0068,-0.0107,-0.0195,-0.0196,-0.021,-0.0208,-0.0308,-0.0307,-0.0306,-0.0234,-0.0226,-0.022,0,0,0,0,0,0,0.0119,0.0092,0.0076,0.0079,0.0058,0.002,0.002,-0.0003,-0.0035,-0.004,-0.0102,-0.0118,-0.0147,-0.0186,-0.0185,-0.0229,-0.0258,-0.0259,-0.0198,-0.0192,-0.0186,-0.0161,-0.0236,0,0,0,0,0,0.0129,0.0129,0.0099,0.0101,0.0095,0.0059,0.0048,0.0028,-0.0005,-0.002,-0.0064,-0.0111,-0.0152,-0.0178,-0.0217,-0.0242,-0.0278,-0.025,-0.0243,-0.0238,-0.0227,-0.028,-0.0277,-0.0302,-0.0302,-0.0302,0,0,0.0142,0.0127,0.0126,0.0108,0.0089,0.0093,0.0051,0.0044,0.0044,-0.003,-0.0042,-0.0091,-0.0153,-0.0179,-0.0196,-0.0213,-0.0248,-0.0237,-0.0232,-0.0223,-0.0278,-0.0276,-0.0274,-0.0301,-0.0301,-0.0301,0,0,0.0175,0.0157,0.0171,0.0161,0.0142,0.0121,0.0123,0.0092,0.0075,0.0057,0.0004,-0.0041,-0.0096,-0.0143,-0.0174,-0.0159,-0.0213,-0.0171,-0.0125,-0.0177,-0.0175,-0.0174,-0.0207,-0.0209,-0.017,-0.017,-0.017,0,0.0192,0.0205,0.0173,0.0186,0.0185,0.014,0.0159,0.0138,0.0099,0.0086,0.0066,-0.002,-0.0079,-0.0121,-0.0116,-0.0147,-0.0174,-0.0147,-0.0168,-0.0168,-0.0169,-0.0203,-0.0207,-0.0166,-0.0167,-0.0167,-0.0168,0,0.0235,0.0247,0.0256,0.0257,0.0252,0.0261,0.0231,0.0222,0.0195,0.0166,0.0127,0.0053,0.0,-0.0027,-0.0069,-0.0099,-0.0117,-0.0152,-0.0184,-0.0161,-0.0199,-0.0204,-0.0161,-0.0162,-0.0163,-0.0164,0,0,0.027,0.0285,0.0288,0.0306,0.0292,0.0294,0.0296,0.0281,0.0284,0.0234,0.0229,0.0144,0.01,0.0063,-0.0001,-0.0047,-0.008,-0.009,-0.0095,-0.0116,-0.0175,-0.018,-0.0187,-0.0117,-0.0118,-0.0118,-0.0196,0,0.0315,0.0362,0.0352,0.0394,0.0417,0.0383,0.0392,0.0368,0.0339,0.0323,0.0238,0.0208,0.0136,0.0114,0.0055,-0.0044,-0.0092,-0.0054,-0.0198,-0.0202,-0.0205,-0.0192,-0.018,-0.0248,-0.0202,-0.0203,-0.0204,0,0.0362,0.0389,0.0441,0.047,0.0477,0.049,0.0492,0.0498,0.0455,0.0433,0.038,0.0315,0.0238,0.0178,0.0023,0.0054,-0.0048,-0.0127,-0.0133,-0.0167,-0.0217,-0.0266,-0.026,-0.0214,-0.0213,-0.0212,-0.0211,0,0.0405,0.045,0.0496,0.0505,0.0528,0.054,0.055,0.0527,0.0549,0.0506,0.0515,0.04,0.0362,0.0217,0.0051,0.0037,-0.011,-0.0161,-0.0261,-0.0262,-0.0294,-0.0297,-0.0267,-0.0267,-0.0267,-0.0267,-0.0267,0,0.0456,0.0494,0.0521,0.0546,0.0609,0.0598,0.0652,0.0643,0.0646,0.0691,0.0581,0.0589,0.0372,0.026,0.0091,-0.0088,-0.0087,-0.0243,-0.0282,-0.0265,-0.0264,-0.0273,-0.0272,-0.027,-0.0269,-0.0269,-0.0268,0,0.0498,0.0514,0.0575,0.0613,0.0634,0.0678,0.0742,0.0779,0.0773,0.0832,0.0829,0.0729,0.0587,0.037,0.0138,-0.002,-0.0205,-0.0271,-0.0223,-0.0255,-0.0334,-0.0328,-0.0395,-0.0396,-0.0397,-0.0397,-0.0398,0,0.0524,0.0559,0.0632,0.0679,0.0701,0.0768,0.0822,0.0844,0.0899,0.093,0.0969,0.0853,0.0794,0.0455,0.0141,-0.0153,-0.0192,-0.0325,-0.0364,-0.0315,-0.0347,-0.0341,-0.0335,-0.0378,-0.0378,-0.0378,-0.0379,0,0.0578,0.06,0.0651,0.0752,0.0819,0.0913,0.0993,0.1061,0.1106,0.115,0.1196,0.1152,0.0839,0.0536,0.0132,-0.0074,-0.0281,-0.0338,-0.0311,-0.0338,-0.0303,-0.0333,-0.0327,-0.0381,-0.038,-0.038,-0.038,-0.038,0.0617,0.0666,0.0736,0.0831,0.0922,0.1048,0.1138,0.1223,0.1331,0.1412,0.1368,0.1312,0.0966,0.0445,0.0088,-0.0293,-0.0283,-0.0418,-0.0416,-0.0414,-0.0388,-0.0355,-0.0438,-0.0438,-0.0438,-0.0438,-0.0438,0,0.0668,0.0726,0.0813,0.0932,0.1038,0.1088,0.1249,0.133,0.1465,0.1532,0.1559,0.1238,0.0897,0.0507,-0.0057,-0.0387,-0.0427,-0.0489,-0.0467,-0.0462,-0.0459,-0.0435,-0.0498,-0.0499,-0.05,-0.0501,0,0,0.0699,0.0785,0.0829,0.1006,0.1102,0.1269,0.1375,0.1486,0.1569,0.1615,0.1587,0.151,0.1034,0.0623,0.0156,-0.0164,-0.0233,-0.0232,-0.0151,-0.0066,-0.0058,-0.039,-0.0345,0,0,0,0,0]}],[{"header":{"parameterUnit":"m.s-1","parameterCategory":2,"la1":30.2991,"la2":30.254,"lo1":-89.0895,"lo2":-89.0444,"dy":0.0017,"dx":0.0017,"nx":28,"ny":28,"refTime":"2024-05-06T09:00:00:Z","depth":"4","parameterNumber":2,"parameterNumberName":"U-component_of_CURRENTS"},"data":[0,0,0,0,0,0,0,0,0,0,0,0,0,0,0,0,0,0,0,0,0,0,0,0,0,0,0,0,0,0,0,0,0,0,0,0,0,0,0,0,0,0,0,0,0,0,0,0,0,0,0,0,0,0,0,0,0,0,0.1606,0.1607,0,0.168,0.1681,0.1682,0.1747,0.1748,0.1749,0.175,0.183,0.1831,0.1832,0,0,0,0,0,0,0,0,0,0,0,0,0,0.151,0.1511,0.1606,0.1607,0.1609,0.168,0.1681,0.1682,0.1747,0.1748,0.1749,0.175,0.1829,0.1831,0.1832,0,0,0,0,0,0,0,0,0,0,0,0,0,0.1563,0.1512,0.1606,0.1651,0.1656,0.168,0.1681,0.1682,0.1746,0.1748,0.1749,0.1751,0.1829,0.1831,0.1832,0.1815,0,0,0.1838,0.1839,0,0,0,0,0,0,0,0,0.1559,0.1566,0.1644,0.1648,0.1654,0.1708,0.1677,0.1727,0.1746,0.171,0.175,0.1751,0.179,0.1795,0.1802,0.1818,0.1822,0.1838,0.1839,0.184,0.1841,0,0,0,0,0,0,0,0.1556,0.1563,0.1633,0.1645,0.1651,0.1664,0.1673,0.1686,0.1739,0.1713,0.1719,0.173,0.1793,0.18,0.1805,0.1823,0.1838,0.184,0.1841,0.1842,0.1963,0.1965,0,0,0,0,0,0,0.155,0.1559,0.1631,0.1636,0.1612,0.1665,0.1675,0.1687,0.1739,0.1749,0.1729,0.1733,0.1796,0.1803,0.1808,0.1906,0.184,0.1842,0.1843,0.1961,0.1964,0.1966,0,0,0,0,0,0,0.1548,0.1556,0.1628,0.1601,0.1611,0.1665,0.1679,0.1688,0.1734,0.1751,0.1761,0.177,0.1798,0.1805,0.1859,0.1906,0.1843,0.1844,0.1959,0.1962,0.1965,0.2029,0,0,0,0,0,0,0.1545,0.1555,0.1577,0.1601,0.1613,0.1668,0.1678,0.1688,0.1738,0.1745,0.1789,0.1796,0.18,0.1857,0.1861,0.1907,0.1846,0.1956,0.196,0.1964,0.2024,0.2034,0.2042,0,0,0,0,0,0.1541,0.1561,0.1578,0.1588,0.1637,0.1669,0.1677,0.1718,0.1739,0.1764,0.18,0.1797,0.1886,0.1859,0.1864,0.1912,0.1954,0.1959,0.1964,0.202,0.2032,0.2042,0,0,0,0,0,0,0.1533,0.157,0.1589,0.1621,0.1656,0.1682,0.1714,0.1736,0.1783,0.1802,0.1816,0.1825,0.1892,0.1892,0.1863,0.1961,0.1922,0.1928,0.1963,0.1975,0.1984,0.1971,0.1847,0,0,0,0,0,0.1539,0.1567,0.1601,0.1632,0.1652,0.1688,0.1713,0.1741,0.1777,0.1802,0.1834,0.1872,0.1908,0.1934,0.1961,0.2007,0.2009,0.2044,0.2053,0.2061,0.2056,0.2101,0.2113,0.1982,0.1982,0.1982,0,0,0.1545,0.157,0.1588,0.1633,0.1664,0.1697,0.1708,0.1757,0.1796,0.18,0.1875,0.1904,0.1927,0.1987,0.2017,0.1998,0.2104,0.2067,0.2073,0.2064,0.2107,0.212,0.2131,0.1985,0.1985,0.1984,0,0,0.1555,0.1594,0.1618,0.1652,0.1706,0.1728,0.175,0.1799,0.1839,0.19,0.1922,0.1977,0.2031,0.2058,0.2076,0.2148,0.2149,0.2172,0.221,0.2255,0.2266,0.2275,0.2307,0.2319,0.2178,0.2178,0.2179,0,0.1564,0.1596,0.1631,0.1664,0.1699,0.1745,0.178,0.1822,0.1887,0.1924,0.1938,0.204,0.2061,0.2128,0.216,0.2168,0.2192,0.2165,0.2266,0.2275,0.2283,0.2314,0.2326,0.2182,0.2182,0.2181,0.2181,0,0.1582,0.1625,0.1645,0.1702,0.1742,0.1784,0.184,0.1896,0.195,0.1989,0.2082,0.2117,0.2178,0.2202,0.2204,0.2285,0.2283,0.227,0.2233,0.23,0.2328,0.234,0.2187,0.2186,0.2185,0.2184,0,0,0.1557,0.1641,0.1652,0.1687,0.177,0.1798,0.1877,0.1949,0.2007,0.2081,0.2156,0.2225,0.2258,0.228,0.2303,0.234,0.2425,0.2338,0.2339,0.2361,0.253,0.2392,0.239,0.2439,0.2442,0.2443,0.2529,0,0.1566,0.1621,0.1669,0.1737,0.1771,0.1846,0.1912,0.199,0.2063,0.2149,0.2209,0.2289,0.2286,0.2334,0.2374,0.2418,0.2457,0.2402,0.2468,0.247,0.2331,0.2399,0.245,0.2538,0.254,0.2542,0.2543,0,0.1564,0.1605,0.1665,0.1757,0.1782,0.1838,0.1952,0.2019,0.2143,0.2205,0.2294,0.2348,0.2438,0.2418,0.252,0.2494,0.2518,0.2535,0.2539,0.2389,0.2351,0.2455,0.2563,0.2562,0.256,0.2559,0.2558,0,0.151,0.1602,0.1649,0.1682,0.1792,0.185,0.1923,0.2044,0.2116,0.2255,0.2327,0.2425,0.2502,0.2548,0.2604,0.2579,0.2699,0.2665,0.2558,0.2549,0.2618,0.2606,0.2723,0.2723,0.2723,0.2723,0.2722,0,0.1482,0.1526,0.1636,0.166,0.1735,0.1833,0.1931,0.2018,0.2158,0.2242,0.2361,0.2435,0.2542,0.2624,0.2642,0.2641,0.2738,0.2569,0.2563,0.2645,0.2636,0.2626,0.2614,0.2726,0.2725,0.2725,0.2724,0,0.1412,0.1484,0.1543,0.1665,0.1709,0.1769,0.193,0.1993,0.2146,0.2263,0.2318,0.2481,0.2581,0.2665,0.2751,0.2683,0.2697,0.267,0.2769,0.2767,0.2505,0.2495,0.2544,0.254,0.2536,0.2533,0.2531,0,0.1379,0.14,0.1524,0.1564,0.1627,0.1735,0.1802,0.1966,0.2034,0.2266,0.2302,0.2474,0.256,0.2576,0.2667,0.2696,0.2663,0.2647,0.2545,0.2498,0.2488,0.2484,0.2479,0.2525,0.2524,0.2523,0.2522,0,0.1304,0.1359,0.1405,0.1485,0.1562,0.1639,0.1753,0.1789,0.1978,0.2139,0.2238,0.2312,0.2424,0.2484,0.2537,0.2547,0.264,0.2609,0.2615,0.2519,0.2476,0.2468,0.2468,0.251,0.2512,0.2513,0.2514,0,0.1249,0.1263,0.1326,0.1391,0.1481,0.1521,0.1593,0.1682,0.1776,0.2022,0.2051,0.224,0.2396,0.241,0.2458,0.2464,0.2413,0.2315,0.2334,0.2349,0.2245,0.2159,0.2096,0,0,0,0,0,0.1181,0.1182,0.1226,0.1284,0.1371,0.1423,0.1548,0.1625,0.1802,0.1818,0.1933,0.203,0.2126,0.2221,0.2187,0.2364,0.2414,0.2313,0.2307,0.2443,0.2457,0.2353,0,0,0,0,0,0,0.1132,0.1161,0.1179,0.1187,0.1211,0.1287,0.1359,0.1476,0.1493,0.1687,0.1746,0.1906,0.2021,0.2127,0.2149,0.2177,0.213,0.2433,0.2427,0.2435,0.2448,0.2459,0.2357,0,0,0,0,0]},{"header":{"parameterUnit":"m.s-1","parameterCategory":2,"la1":30.2991,"la2":30.254,"lo1":-89.0895,"lo2":-89.0444,"dy":0.0017,"dx":0.0017,"nx":28,"ny":28,"refTime":"2024-05-06T09:00:00:Z","depth":"4","parameterNumber":3,"parameterNumberName":"V-component_of_CURRENTS"},"data":[0,0,0,0,0,0,0,0,0,0,0,0,0,0,0,0,0,0,0,0,0,0,0,0,0,0,0,0,0,0,0,0,0,0,0,0,0,0,0,0,0,0,0,0,0,0,0,0,0,0,0,0,0,0,0,0,0,0,-0.0003,-0.0003,0,-0.004,-0.004,-0.0041,-0.0075,-0.0075,-0.0075,-0.0076,-0.0167,-0.0169,-0.0171,0,0,0,0,0,0,0,0,0,0,0,0,0,0.0015,0.0015,-0.0003,-0.0003,-0.0004,-0.004,-0.004,-0.0041,-0.0075,-0.0075,-0.0076,-0.0076,-0.0166,-0.0169,-0.0171,0,0,0,0,0,0,0,0,0,0,0,0,0,-0.0004,0.0015,-0.0003,-0.0025,-0.0027,-0.004,-0.004,-0.0041,-0.0074,-0.0075,-0.0076,-0.0076,-0.0165,-0.0168,-0.0171,-0.0178,0,0,-0.0181,-0.0182,0,0,0,0,0,0,0,0,-0.0003,-0.0005,-0.0021,-0.0023,-0.0026,-0.0053,-0.0067,-0.0089,-0.0074,-0.0056,-0.0076,-0.0077,-0.0133,-0.0139,-0.0144,-0.0182,-0.0186,-0.0181,-0.0183,-0.0184,-0.0185,0,0,0,0,0,0,0,-0.0002,-0.0004,-0.0017,-0.0022,-0.0025,-0.0041,-0.0044,-0.0072,-0.0092,-0.0058,-0.0061,-0.0065,-0.0135,-0.0141,-0.0146,-0.0187,-0.0181,-0.0184,-0.0186,-0.0187,-0.0255,-0.0255,0,0,0,0,0,0,0.0005,-0.0002,-0.0016,-0.0018,-0.0016,-0.0041,-0.0045,-0.0044,-0.0091,-0.0098,-0.0064,-0.0066,-0.0135,-0.0143,-0.015,-0.0167,-0.0184,-0.0187,-0.0189,-0.0255,-0.0255,-0.0255,0,0,0,0,0,0,0.0005,0.0004,-0.0015,-0.0012,-0.0015,-0.004,-0.0039,-0.0044,-0.0053,-0.0095,-0.0103,-0.0068,-0.0136,-0.0146,-0.0173,-0.0171,-0.0188,-0.0191,-0.0255,-0.0255,-0.0255,-0.0197,0,0,0,0,0,0,0.0006,0.0005,0.0007,-0.0011,-0.0015,-0.0018,-0.0039,-0.0044,-0.0054,-0.0057,-0.0101,-0.011,-0.0137,-0.0168,-0.0176,-0.0175,-0.0194,-0.0255,-0.0255,-0.0255,-0.0199,-0.0195,-0.0192,0,0,0,0,0,0.0007,0.0016,0.0008,0.0006,-0.0011,-0.0017,-0.0021,-0.0041,-0.0054,-0.0052,-0.0084,-0.0108,-0.0174,-0.0171,-0.018,-0.018,-0.0255,-0.0255,-0.0255,-0.0201,-0.0196,-0.0192,0,0,0,0,0,0,0.0024,0.0013,0.0003,0.0008,-0.0003,-0.0023,-0.0024,-0.0038,-0.006,-0.0065,-0.0107,-0.0117,-0.0141,-0.0169,-0.0164,-0.02,-0.022,-0.0221,-0.0175,-0.0171,-0.0168,-0.015,-0.0196,0,0,0,0,0,0.003,0.0034,0.0018,0.0022,0.0019,-0.0002,-0.0008,-0.002,-0.0042,-0.0052,-0.0082,-0.0116,-0.0147,-0.0165,-0.0194,-0.0212,-0.0242,-0.022,-0.0216,-0.0213,-0.0205,-0.0253,-0.0252,-0.0255,-0.0255,-0.0255,0,0,0.0038,0.0032,0.0033,0.0026,0.0016,0.0021,-0.0007,-0.001,-0.0008,-0.0059,-0.0067,-0.0104,-0.015,-0.0169,-0.0183,-0.0192,-0.0226,-0.0213,-0.0209,-0.0204,-0.0252,-0.0252,-0.0252,-0.0255,-0.0255,-0.0255,0,0,0.0058,0.005,0.0061,0.0057,0.0048,0.0038,0.0039,0.0022,0.0011,-0.0001,-0.004,-0.0075,-0.0113,-0.0148,-0.0171,-0.0166,-0.0205,-0.0176,-0.0144,-0.019,-0.019,-0.019,-0.022,-0.0223,-0.0174,-0.0174,-0.0174,0,0.0066,0.0079,0.0063,0.0074,0.0076,0.0049,0.0064,0.0052,0.0027,0.0018,0.0004,-0.0062,-0.0103,-0.0136,-0.0135,-0.0158,-0.0183,-0.0155,-0.0184,-0.0185,-0.0187,-0.0217,-0.0222,-0.0171,-0.0172,-0.0172,-0.0172,0,0.0094,0.0105,0.0113,0.0119,0.0119,0.0128,0.0113,0.0109,0.0092,0.0073,0.0042,-0.0012,-0.0052,-0.0073,-0.0103,-0.0133,-0.0147,-0.0173,-0.0191,-0.0183,-0.0215,-0.0221,-0.0167,-0.0168,-0.0169,-0.017,0,0,0.0108,0.0129,0.0132,0.0146,0.0146,0.0151,0.0157,0.015,0.0153,0.0118,0.0113,0.0049,0.0017,-0.0011,-0.0058,-0.0099,-0.0134,-0.0132,-0.0136,-0.0154,-0.0221,-0.0216,-0.0223,-0.0164,-0.0165,-0.0165,-0.0237,0,0.0134,0.0169,0.0171,0.0205,0.0222,0.0209,0.0221,0.021,0.0191,0.018,0.0117,0.0095,0.0042,0.0026,-0.0025,-0.0106,-0.0147,-0.0111,-0.0234,-0.0237,-0.0228,-0.0229,-0.0168,-0.0242,-0.0243,-0.0244,-0.0245,0,0.0159,0.0182,0.0221,0.0254,0.0261,0.0277,0.0288,0.0299,0.0272,0.0258,0.0218,0.017,0.0107,0.0064,-0.0067,-0.004,-0.0122,-0.0187,-0.0192,-0.021,-0.0243,-0.0257,-0.0256,-0.0255,-0.0254,-0.0253,-0.0253,0,0.0174,0.0216,0.025,0.026,0.0292,0.0307,0.0325,0.0318,0.0337,0.031,0.0316,0.0226,0.0195,0.0077,-0.0057,-0.0063,-0.0198,-0.0229,-0.0302,-0.0302,-0.031,-0.0309,-0.0322,-0.0321,-0.0321,-0.0321,-0.0321,0,0.0198,0.0227,0.0263,0.0281,0.033,0.0342,0.0386,0.0389,0.0402,0.0429,0.0362,0.0356,0.0196,0.01,-0.0033,-0.0177,-0.0185,-0.0292,-0.0322,-0.0284,-0.0279,-0.0314,-0.0312,-0.0324,-0.0323,-0.0323,-0.0322,0,0.0206,0.023,0.0274,0.0317,0.0339,0.0375,0.0442,0.047,0.0485,0.052,0.052,0.0449,0.0328,0.0166,-0.0025,-0.0134,-0.0282,-0.0334,-0.0262,-0.0288,-0.0361,-0.0356,-0.0421,-0.0421,-0.0421,-0.0422,-0.0422,0,0.0213,0.0236,0.0298,0.0332,0.0356,0.0417,0.0462,0.0504,0.0539,0.0575,0.0588,0.0504,0.0431,0.0186,-0.0001,-0.0246,-0.0289,-0.0362,-0.038,-0.035,-0.0373,-0.0366,-0.0361,-0.0423,-0.0423,-0.0423,-0.0423,0,0.0222,0.0241,0.0276,0.0349,0.0402,0.0474,0.0541,0.0574,0.063,0.065,0.0653,0.0541,0.0408,0.02,0.0014,-0.0168,-0.0313,-0.0367,-0.0368,-0.0386,-0.0353,-0.0374,-0.0368,-0.0424,-0.0424,-0.0424,-0.0424,0,0.0222,0.0245,0.029,0.0357,0.0436,0.0509,0.0545,0.0598,0.0646,0.0689,0.0686,0.0564,0.0492,0.0241,0.0066,-0.0107,-0.0163,-0.0228,-0.0237,-0.0238,-0.0171,-0.0102,-0.0118,0,0,0,0,0,0.0218,0.0242,0.0297,0.0372,0.0456,0.0503,0.059,0.0621,0.0677,0.0691,0.0698,0.0582,0.0358,0.0259,0.0086,0.0019,-0.0222,-0.0193,-0.0308,-0.0432,-0.043,-0.0384,0,0,0,0,0,0,0.0212,0.0254,0.0284,0.038,0.0435,0.0529,0.0585,0.0622,0.063,0.0668,0.055,0.0532,0.03,0.0458,0.0082,0.003,-0.0069,-0.029,-0.0294,-0.0433,-0.0431,-0.043,-0.0382,0,0,0,0,0]}]]